Location: Izdebno
(52.6670°N, 16.2170°E)
Time: 10:57:30
(UTC+01:00)

Transit 2A - Pass Details

Date: 04 February 2023
Orbit: 591 x 964 km, 66.7° (Epoch: 21 March)

Event Time Altitude Azimuth Distance (km) Brightness Sun altitude
Rises 02:04:09 0° 317° (NW) 3,477 - -47.2°
Reaches altitude 10° 02:06:43 10° 311° (NW) 2,582 - -46.9°
Maximum altitude 02:12:19 41° 244° (WSW) 1,346 - -46.3°
Drops below altitude 10° 02:18:10 10° 177° (S) 2,691 - -45.7°
Sets 02:20:53 0° 170° (S) 3,639 - -45.4°
